Weather History for Barking Sands, HI

Change the Weather History Date:

Friday, August 23, 2013

  Actual Average Record
Temperature  
Mean Temperature 79 °F -  
Max Temperature 86 °F 88 °F 91 °F (1967)
Min Temperature 72 °F 67 °F 64 °F (1955)
Cooling Degree Days 14    
Growing Degree Days 29 (Base 50)    
Moisture  
Dew Point 68 °F    
Average Humidity 69    
Maximum Humidity 76    
Minimum Humidity 61    
Precipitation  
Precipitation 0.00 in - - ()
Sea Level Pressure  
Sea Level Pressure 29.98 in    
Wind  
Wind Speed 6 mph (NNE)    
Max Wind Speed 13 mph    
Max Gust Speed -    
Visibility 10 miles    
Events      
Averages and records for this station are not official NWS values.
T = Trace of Precipitation, MM = Missing Value Source: NWS Daily Summary

Daily Weather History Graph

Daily Weather History Graph

Search for Another Location

Airport:

Trip Planner

Search our weather history database for the weather conditions in past years. The results will help you decide how hot, cold, wet, or windy it might be!

Date:

Astronomy

Aug. 23, 2013 Rise Set
Actual Time 6:19 AM HST 7:03 PM HST
Civil Twilight 5:56 AM HST 7:26 PM HST
Nautical Twilight 5:29 AM HST 7:53 PM HST
Astronomical Twilight 5:02 AM HST 8:20 PM HST
Moon 9:02 PM HST (8/23) 8:57 AM HST (8/23)
Length of Visible Light 13h 29m
Length of Day
12h 43m
Waning Gibbous, 90% of the Moon is Illuminated
Aug 23
Waning Gibbous
Aug 27
Last Quarter
Sep 5
New
Sep 12
First Quarter
Sep 19
Full

Hourly Weather History & Observations

Time (HST) Temp. Heat Index Dew Point Humidity Pressure Visibility Wind Dir Wind Speed Gust Speed Precip Events Conditions
12:56 AM 75.0 °F - 66.9 °F 76% 30.00 in 10.0 mi East 4.6 mph - N/A   Clear
1:56 AM 73.9 °F - 64.9 °F 73% 29.98 in 10.0 mi East 4.6 mph - N/A   Clear
2:56 AM 73.9 °F - 66.0 °F 76% 29.97 in 10.0 mi East 3.5 mph - N/A   Clear
3:56 AM 73.0 °F - 64.9 °F 76% 29.96 in 10.0 mi East 3.5 mph - N/A   Clear
4:56 AM 73.0 °F - 64.0 °F 73% 29.96 in 10.0 mi ENE 4.6 mph - N/A   Clear
5:56 AM 72.0 °F - 64.0 °F 76% 29.97 in 10.0 mi ENE 4.6 mph - N/A   Clear
6:56 AM 73.9 °F - 64.9 °F 73% 29.98 in 10.0 mi ENE 3.5 mph - N/A   Clear
7:56 AM 80.1 °F 82.9 °F 69.1 °F 69% 29.99 in 10.0 mi Calm Calm - N/A   Clear
8:56 AM 80.1 °F 83.6 °F 71.1 °F 74% 30.01 in 10.0 mi WSW 4.6 mph - N/A   Clear
9:56 AM 81.0 °F 84.9 °F 71.1 °F 72% 30.01 in 10.0 mi WSW 6.9 mph - N/A   Clear
10:56 AM 82.9 °F 87.5 °F 71.1 °F 67% 30.01 in 10.0 mi WNW 6.9 mph - N/A   Clear
11:56 AM 84.0 °F 88.4 °F 70.0 °F 63% 29.99 in 10.0 mi NW 11.5 mph - N/A   Partly Cloudy
12:56 PM 84.9 °F 89.4 °F 70.0 °F 61% 29.98 in 10.0 mi NW 10.4 mph - N/A   Partly Cloudy
1:56 PM 86.0 °F 91.5 °F 71.1 °F 61% 29.96 in 10.0 mi NW 11.5 mph - N/A   Mostly Cloudy
2:56 PM 84.9 °F 90.1 °F 71.1 °F 63% 29.94 in 10.0 mi West 12.7 mph - N/A   Clear
3:56 PM 84.9 °F 90.1 °F 71.1 °F 63% 29.93 in 10.0 mi WSW 12.7 mph - N/A   Clear
4:56 PM 84.0 °F 87.8 °F 69.1 °F 61% 29.93 in 10.0 mi SSW 9.2 mph - N/A   Scattered Clouds
5:56 PM 82.9 °F 86.5 °F 69.1 °F 63% 29.93 in 10.0 mi NW 4.6 mph - N/A   Clear
6:56 PM 82.0 °F 85.9 °F 70.0 °F 67% 29.95 in 10.0 mi NNE 11.5 mph - N/A   Clear
7:56 PM 81.0 °F 84.9 °F 71.1 °F 72% 29.96 in 10.0 mi North 8.1 mph - N/A   Clear
8:56 PM 79.0 °F - 69.1 °F 72% 29.99 in 10.0 mi NNE 5.8 mph - N/A   Clear
9:56 PM 79.0 °F - 66.9 °F 66% 30.01 in 10.0 mi East 3.5 mph - N/A   Mostly Cloudy
10:56 PM 77.0 °F - 64.9 °F 66% 30.01 in 10.0 mi ENE 3.5 mph - N/A   Clear
11:56 PM 75.9 °F - 64.0 °F 67% 30.01 in 10.0 mi ENE 3.5 mph - N/A   Clear